DECAYED
Showing default

FLOCK 4Q 15, 58319 (Decayed)

Orbit data source: Space-Track

FLOCK 4Q 15, 58319 was a payload satellite owned by Planet (US) in LEO that was launched on Sat, 11 Nov 2023 UTC via an FALCON 9 launch vehicle from the Air Force Western Test Range (AFWTR). Payload-class satellites include a variety of spacecraft equipped with specific instruments for various scientific and technological missions. These include communications satellites like Starlink; space stations such as the ISS; scientific satellites like the Hubble; Earth observation satellites from companies like Planet Labs, Umbra, and HawkEye 360; GPS; miniature CubeSats for education and research; and military/defense satellites.

Not visible in the next 10 days
Identifier
58319, 2023-174BR
Orbit
Decayed
Country
Flag of USUS
Related business
Manufacturer
Planet
Mission
Decayed Commercial Imaging
Bus & Motor
CUBESAT 3U, Unknown motor
Mass
5.7 kg wet, 5.7 kg dry
Launch date (UTC)
2023-11-11 (3 years ago)
Launch vehicle
FALCON 9
Launch site
Air Force Western Test Range (AFWTR)
Object type
Payload
Rocket body
Debris
Shape & HBR
Box + 2 Pan, 1.0 m
Radar Cross Section
0.072 m², Medium (>0.1 m² and < 1m²)

Expand to show TLE details & history
Last TLE update: 3 months ago

TLE from 3 months ago
0 FLOCK 4Q 15
1 58319U 23174BR  26151.99703782  .06538557  24789-5  12054-2 0  9991
2 58319  97.3585 248.4941 0016578 268.0921  91.8476 16.31890155143600
Epoch: 2026-05-31T23:55Z
TLE epoch observation values (Epoch: 2026-05-31T23:55:44.067Z)
Latitude
Longitude
0.06979°
Altitude
191.076 km
Speed
7.791 km/s
True Right ascension
16h 33m 58s
True Declination
0° 00' 00"
Sunlit
Object was in full shadow at epoch
Visualization orbit readout
Latitude
Unknown
Longitude
Unknown
Altitude
Unknown
Speed
Unknown
Apparent Right ascension
Unknown
Apparent Declination
Unknown
Sunlit
N/A
Visualization observer readout
Local Sidereal Time
12:50:47
Azimuth
Unknown
Elevation
Unknown
Doppler factor
Unknown
Orbital elements
Apogee altitude
195.161 km
Perigee altitude
173.402 km
Semi-major axis
6,562.418 km
Eccentricity
0.00166
Inclination
97.3585°
RAAN
248.4941°
Arg. of periapsis
268.0921°
True anomaly
92.03746°
Mean anomaly
91.8476°
Eccentric anomaly
91.94253°
Mean motion
4.0827 °/min
Orbital period
88.18 mins
BSTAR
0.0012054
Loading maneuver chart data...
Computing Atmospheric mass density...

Documentation

Showing up to 5 results
|